Wind_Speed
20 19 18 19 19 19 21 24 24 23 22 22 23 22 22 22 22 21 21 21 22 24 25 27 27 28 27 27 26 25 24 23 23 22 23 24 25 24 24 22 20 20 20 19 18 18 18 17 17 18 19 20 21 21 21 21 22 22 21 20 20 21 20 19 19 19 19 19 19 19 18 19 18 16 16 17 19 21 21 22 22 22 21 20 20
23 21 20 18 20 20 22 25 23 23 22 22 23 22 22 21 21 21 21 22 22 23 24 25 25 26 25 25 23 22 23 23 24 24 25 25 25 24 22 22 20 19 20 19 18 18 17 17 18 20 21 21 21 21 21 21 23 21 19 19 20 21 20 20 20 19 19 20 19 20 20 20 17 16 17 17 19 20 22 22 23 23 22 21 21
25 22 20 19 21 21 24 25 23 23 22 23 23 22 22 21 21 21 21 21 22 22 23 24 23 24 23 23 22 22 23 24 25 25 25 24 24 23 21 21 19 19 20 19 19 18 18 18 18 20 21 21 20 20 20 20 22 20 18 19 20 20 20 20 20 19 19 20 20 19 18 18 16 15 17 17 18 20 22 22 22 23 22 22 22
26 24 21 21 21 23 25 25 23 22 23 23 23 22 21 21 21 21 21 21 22 22 23 23 23 24 23 23 23 23 23 24 25 25 24 22 22 21 20 19 19 19 19 19 19 19 18 18 19 20 19 19 19 19 19 19 20 19 18 18 19 19 19 18 18 20 21 22 21 18 16 18 17 14 16 17 18 19 20 21 21 22 21 22 22
27 25 23 23 22 24 25 25 24 22 23 23 23 22 21 21 21 21 21 21 22 23 23 24 23 24 24 23 23 22 21 22 23 23 22 21 21 19 19 18 18 18 18 19 20 19 18 19 19 19 18 18 18 18 18 18 18 18 17 16 16 15 16 16 16 18 21 21 20 18 17 19 17 14 15 14 15 18 18 18 19 20 20 21 21
29 27 24 24 23 25 25 25 24 23 24 24 24 22 21 21 21 21 21 22 22 23 24 25 24 24 23 23 22 21 20 20 21 21 21 21 20 17 16 16 17 17 17 18 19 18 18 18 18 18 17 17 17 17 17 17 16 16 15 14 14 11 10 13 13 15 17 19 19 19 19 19 17 15 14 12 12 15 16 16 17 18 18 19 19
30 28 25 25 25 26 25 25 24 23 24 24 24 22 22 21 21 21 22 22 23 23 23 24 24 23 23 22 21 21 20 20 20 20 21 20 18 16 16 16 16 16 16 17 17 18 18 18 18 17 17 17 17 16 17 16 15 13 12 12 11 9 7 9 10 11 14 17 19 20 19 18 16 15 14 12 11 13 15 14 14 15 16 16 17
30 28 26 26 26 26 25 25 24 24 24 24 24 23 22 21 21 21 22 22 22 22 22 23 23 22 21 20 20 20 21 20 20 20 20 19 18 17 16 16 16 15 15 15 15 17 18 18 17 17 17 17 16 16 16 14 13 12 11 10 8 6 6 8 8 9 13 17 18 19 19 17 17 15 13 12 12 13 14 13 12 13 13 13 14
29 27 27 27 26 26 26 25 24 24 24 24 24 23 22 21 20 20 21 22 22 22 21 21 21 20 19 20 19 19 20 21 20 20 19 18 18 17 18 17 16 15 15 14 14 16 17 17 17 17 17 16 16 16 15 14 13 11 10 9 6 5 7 10 10 10 13 15 16 16 17 17 18 16 13 12 12 13 13 12 12 12 12 12 13
28 27 28 27 27 27 26 25 24 24 24 24 24 23 22 20 19 19 20 21 21 20 19 19 19 19 18 18 18 19 19 20 20 18 18 17 17 17 18 17 16 15 14 14 13 15 15 16 17 17 17 17 17 16 15 13 12 11 11 9 6 6 9 12 12 12 13 14 14 14 15 17 18 16 14 13 13 13 13 13 12 12 12 11 11
27 28 28 27 27 27 26 25 24 23 23 24 23 22 22 20 19 19 19 19 19 19 18 18 19 18 17 16 16 18 18 19 19 18 17 16 16 16 16 15 15 15 14 14 13 14 15 16 17 17 17 17 16 15 14 13 12 12 11 9 8 9 12 13 13 13 12 13 12 13 16 17 17 16 14 14 14 14 14 14 13 12 11 11 11
26 27 27 27 27 27 26 25 24 23 23 23 23 22 21 20 19 19 18 18 18 17 17 17 18 18 16 16 15 16 17 18 18 17 17 16 15 14 13 13 14 14 14 13 12 13 15 16 17 17 17 16 15 14 13 12 12 12 12 9 8 11 14 14 13 13 12 11 11 14 16 16 16 15 15 15 14 14 13 13 13 11 10 10 10
26 26 26 27 26 26 26 25 24 23 22 23 22 22 21 20 19 18 18 17 17 17 17 17 17 17 16 16 15 16 17 17 16 16 16 15 14 12 13 13 13 13 13 12 11 11 13 15 17 17 17 16 14 13 12 12 11 12 12 10 9 12 14 13 13 13 12 11 12 14 15 15 15 15 15 15 14 14 14 14 13 12 10 10 9
27 26 26 27 26 25 25 24 23 22 21 22 22 21 21 20 18 18 17 16 17 17 17 18 17 16 16 15 15 16 16 16 15 15 14 13 13 12 13 14 13 12 12 12 11 10 11 13 16 17 16 15 14 12 11 11 11 11 12 11 10 12 13 13 13 13 13 12 13 14 14 14 14 14 14 14 15 15 15 14 14 12 11 12 11
27 27 26 26 25 23 23 24 23 22 21 22 22 21 21 20 18 18 16 15 16 17 17 17 17 16 15 15 15 16 15 15 14 13 13 12 12 12 13 13 13 12 12 11 10 9 9 12 15 17 16 15 13 11 11 10 11 11 11 10 10 12 12 13 13 13 13 13 13 12 13 14 14 14 13 14 14 14 15 15 14 12 12 12 11
26 26 26 26 24 23 23 23 22 22 21 21 21 21 21 20 18 17 15 15 16 17 17 17 17 16 15 14 14 15 15 14 13 13 13 13 13 13 13 13 13 12 11 10 8 8 9 11 15 17 16 14 12 10 10 10 10 11 11 10 10 12 12 12 12 13 13 12 12 12 13 13 13 13 13 13 14 14 14 14 13 13 12 12 12
26 26 26 24 23 23 23 22 21 21 20 20 20 21 21 20 19 17 15 14 16 17 17 17 16 15 15 14 14 14 14 13 13 13 13 13 13 12 12 11 12 12 10 9 8 8 8 10 13 16 15 13 11 10 10 10 10 11 12 10 9 11 11 10 11 12 12 12 11 11 12 12 12 12 12 12 13 13 13 13 13 13 12 12 11
26 25 25 24 23 23 22 22 21 20 19 19 20 22 21 20 19 17 15 14 17 18 18 18 16 15 15 14 14 13 13 13 14 14 14 13 12 11 10 10 11 11 9 9 8 8 8 9 11 13 13 11 10 9 10 10 10 11 12 10 8 11 12 10 11 12 12 11 10 10 10 10 10 11 12 12 12 12 13 13 12 12 12 11 11
26 25 24 24 23 23 22 22 22 21 20 20 22 23 21 20 18 16 14 14 16 18 18 18 16 16 15 15 15 13 13 13 14 14 13 12 10 9 9 10 11 10 9 8 8 7 8 9 9 10 9 8 8 8 9 10 10 10 12 9 7 11 13 11 11 12 11 11 10 9 9 10 11 12 12 11 11 12 12 11 11 11 11 11 11
25 24 24 24 24 24 23 23 22 23 23 23 23 23 21 19 17 15 13 14 16 18 17 17 16 16 15 15 15 14 14 14 14 13 12 10 9 8 8 10 11 10 9 8 7 7 8 8 8 7 6 6 6 7 9 10 9 10 11 10 8 12 14 12 11 11 11 11 10 10 10 11 11 11 12 11 11 11 11 10 10 10 10 11 10
25 24 24 24 25 25 25 24 24 24 25 24 24 23 20 18 17 15 14 15 17 17 17 16 16 16 15 15 15 15 14 14 13 12 10 8 7 8 9 9 10 9 9 8 8 8 8 7 6 6 5 5 6 7 8 9 8 9 11 10 9 13 14 13 12 11 11 11 11 11 11 10 8 10 12 12 11 10 10 10 9 9 9 10 8
25 24 24 25 26 26 26 25 25 24 25 25 24 22 20 19 17 15 15 16 17 17 17 16 17 16 15 15 15 15 14 13 12 10 8 7 7 8 9 9 10 10 10 11 10 9 8 6 6 6 5 4 5 6 7 8 8 9 10 10 10 13 14 13 12 11 11 11 12 12 10 9 8 11 13 12 10 10 10 10 9 8 8 8 7
25 24 24 25 27 27 26 26 26 25 25 24 23 22 20 19 17 16 16 17 17 16 16 16 17 17 16 15 15 14 13 12 11 9 7 7 8 10 10 11 12 12 11 11 10 8 6 6 6 5 4 4 3 4 6 7 8 9 10 10 11 13 14 13 11 10 11 11 12 12 11 9 9 11 12 11 8 8 9 9 8 8 8 8 8
25 25 24 24 26 27 26 26 26 26 25 23 22 21 20 19 18 17 18 18 16 15 15 16 18 17 16 15 14 13 12 11 10 8 7 9 10 11 11 11 12 12 10 10 9 8 7 7 6 5 4 3 2 3 5 6 7 9 11 11 11 12 14 13 11 10 11 11 12 12 11 10 11 11 10 9 7 7 8 8 7 8 8 8 8
25 25 24 24 26 26 26 26 25 25 24 22 21 20 19 19 19 20 20 19 16 14 14 17 19 17 16 15 14 13 12 12 10 9 8 9 11 12 11 11 12 11 9 10 9 8 8 8 6 5 4 4 3 4 4 5 7 9 11 10 10 12 14 13 12 11 11 11 13 13 10 11 13 12 10 8 7 7 8 7 8 9 8 7 7
25 25 25 26 26 26 25 25 24 23 22 21 21 20 19 19 20 21 20 18 15 14 16 19 20 18 17 16 15 13 12 11 10 8 7 9 11 12 11 10 10 10 10 10 9 8 8 7 6 5 5 5 5 6 6 6 7 10 11 9 9 12 14 14 13 12 12 13 14 13 10 12 14 11 9 8 7 6 7 8 8 9 9 9 7
26 26 27 27 26 26 25 25 24 23 22 20 20 20 19 18 20 20 19 17 15 15 17 20 21 19 18 16 15 13 12 12 10 8 8 9 10 10 10 9 8 9 10 10 8 6 5 4 4 4 5 6 6 6 6 6 7 8 8 8 10 13 14 15 14 13 13 14 15 13 11 13 13 9 8 8 7 6 6 8 9 8 9 9 8
27 26 26 28 28 28 27 26 25 24 23 21 20 20 19 18 19 19 17 16 15 16 19 22 21 19 18 16 14 13 13 12 10 10 9 9 9 9 9 7 7 8 8 8 7 5 3 2 2 3 4 5 6 6 5 6 6 6 6 7 10 13 14 16 15 14 14 15 15 13 12 14 12 9 8 8 7 6 5 7 8 8 8 8 8
26 28 28 29 30 30 29 28 27 26 24 22 21 20 19 20 20 19 16 15 16 18 21 22 21 19 17 15 14 13 13 12 11 11 11 10 9 8 7 6 6 7 6 6 5 3 2 2 2 3 5 5 5 6 5 5 5 6 5 7 9 11 13 16 15 15 15 15 15 13 13 15 14 10 9 9 8 7 5 6 7 8 7 6 7
24 28 28 28 29 28 29 29 28 25 23 23 22 21 21 21 20 18 16 15 17 20 22 22 21 19 17 15 14 13 12 12 12 12 11 10 9 8 7 6 5 5 4 3 2 1 1 3 4 6 6 6 6 6 5 5 6 6 6 7 8 9 12 15 15 15 15 15 15 13 13 15 15 12 10 9 9 7 6 5 6 7 7 6 6
23 26 27 27 28 28 28 28 26 23 23 23 22 22 22 21 20 18 16 15 17 20 22 21 20 19 17 15 14 13 12 12 11 11 11 9 8 7 5 5 4 4 2 0 1 1 2 4 5 7 8 8 8 7 6 6 6 6 6 7 8 9 11 13 14 14 14 14 14 13 13 14 15 12 9 9 8 7 7 7 6 6 7 7 7
30 32 31 31 31 30 29 27 24 23 23 23 23 22 22 21 20 18 16 15 17 20 21 20 19 18 16 15 14 13 12 11 10 10 9 8 7 5 5 4 3 2 2 3 3 3 3 4 5 7 8 8 9 8 7 7 7 7 7 8 9 9 10 12 13 14 14 14 14 14 14 14 15 12 9 9 6 5 7 6 5 5 6 8 7
35 36 36 35 35 32 30 27 24 24 24 23 23 22 21 21 20 17 16 16 18 20 21 20 19 18 16 16 15 14 13 12 10 9 8 7 7 5 5 4 3 3 4 4 5 4 4 4 5 7 8 8 8 9 9 8 8 8 8 8 9 9 11 13 15 15 15 14 15 15 14 13 15 13 10 10 6 5 7 5 4 4 5 7 7
33 33 33 33 32 32 30 28 26 25 24 23 22 21 21 21 19 17 16 17 18 20 21 20 18 17 17 16 16 14 13 11 10 9 8 7 7 6 5 5 4 3 4 4 5 5 5 5 6 7 8 8 8 9 9 9 9 8 9 9 9 10 12 14 16 16 16 16 16 15 13 12 15 14 10 9 7 5 7 6 4 3 3 5 5
28 27 27 26 27 29 29 29 27 26 25 23 22 21 21 19 18 17 17 17 18 20 20 19 18 18 17 16 15 14 13 12 10 9 8 7 7 7 5 5 4 3 3 4 5 6 6 7 7 7 8 9 9 10 10 9 10 9 9 10 10 12 13 15 16 17 18 17 16 15 14 12 14 13 9 9 8 6 6 6 7 5 2 4 3
25 26 27 25 25 27 28 29 28 26 25 23 22 21 20 19 17 16 16 16 17 19 19 19 19 18 16 15 15 13 12 11 10 9 8 8 8 6 5 5 4 4 4 5 5 6 7 8 8 7 8 10 10 11 11 11 11 10 10 10 10 11 12 14 15 17 17 16 15 15 15 13 12 10 9 10 8 7 6 4 7 5 3 5 3
28 29 31 27 25 27 28 28 28 27 25 23 21 20 19 18 17 15 14 15 18 18 18 19 18 17 15 14 13 12 11 11 9 9 8 8 8 6 5 5 5 6 6 6 7 6 7 9 9 8 7 10 12 13 13 13 12 11 10 10 10 9 10 10 12 14 16 16 15 16 15 13 11 10 9 10 9 7 6 5 6 6 5 5 4
27 28 30 29 27 28 28 28 27 26 24 22 21 20 19 18 16 14 14 15 17 17 17 18 17 16 15 13 12 12 12 12 11 9 9 8 8 7 6 6 7 7 7 7 7 7 7 8 10 9 6 8 12 14 15 14 14 12 10 10 9 8 8 8 9 11 15 15 14 14 13 12 11 10 9 10 9 8 7 7 7 7 5 4 3
23 23 26 27 28 28 27 27 25 24 23 21 20 20 19 18 16 15 15 15 16 17 16 16 16 15 14 12 12 12 12 12 12 10 9 9 8 8 7 8 8 8 8 7 7 8 8 9 10 10 8 8 12 15 16 16 15 13 11 11 9 8 7 6 7 9 11 12 12 12 11 11 12 11 10 10 10 8 7 7 8 7 6 4 4
21 22 23 25 26 27 26 25 24 24 22 20 20 19 18 17 17 16 16 16 16 16 15 15 14 13 13 12 12 12 13 12 12 10 10 8 8 9 9 9 9 8 8 7 8 8 9 11 11 10 11 12 14 15 16 17 17 14 12 10 9 7 6 5 6 7 8 9 9 10 11 11 12 12 11 10 10 8 7 8 7 6 7 6 5
20 22 24 24 26 26 26 25 24 24 23 21 20 19 19 18 16 16 16 17 17 16 14 14 13 12 12 12 11 12 12 12 12 12 10 8 8 10 10 10 9 8 6 6 7 7 9 12 12 12 12 16 17 15 16 19 17 14 11 11 12 10 8 6 6 5 6 7 7 9 11 10 9 11 12 10 9 8 7 6 6 5 6 7 6
21 23 25 24 25 26 26 25 24 24 23 22 20 19 18 17 16 16 16 16 16 16 14 13 12 11 12 11 11 11 12 11 12 13 10 7 9 11 10 9 8 7 6 6 7 8 10 12 13 13 13 16 16 17 19 15 12 11 10 9 10 11 10 9 9 7 4 4 4 5 8 8 6 6 8 7 6 6 5 4 5 5 5 5 5
21 22 24 24 24 25 25 24 24 24 23 21 20 18 16 15 15 15 17 17 16 15 13 12 11 12 12 12 12 12 12 11 12 12 10 8 9 10 9 8 8 8 7 8 8 9 11 11 12 13 14 15 14 18 17 9 9 13 9 5 3 5 7 8 10 10 6 4 4 3 3 4 3 1 2 2 3 5 4 3 4 5 4 4 4
19 19 21 23 24 24 24 23 24 25 22 20 18 17 15 13 13 15 17 16 15 14 13 12 12 12 12 12 12 12 11 11 11 10 9 8 9 9 9 8 7 8 8 9 10 10 11 10 11 12 15 16 14 16 12 7 14 14 6 2 2 2 2 4 8 10 8 6 5 4 3 2 2 2 2 2 2 2 3 3 3 3 3 3 3
18 18 20 23 24 23 24 24 24 24 22 20 18 17 16 14 13 15 15 14 14 15 14 13 13 13 13 12 11 10 10 10 10 9 9 10 11 10 9 8 8 8 8 9 8 8 9 9 11 12 15 17 15 14 10 10 17 12 4 4 3 2 2 3 5 8 9 9 8 7 6 5 4 4 5 4 4 4 2 2 2 1 2 3 3
18 19 20 23 24 23 25 25 24 23 21 20 18 17 17 15 16 17 17 16 16 16 16 16 15 14 13 12 11 11 11 11 11 11 12 12 11 10 9 9 8 8 8 8 7 7 8 8 11 13 14 15 15 15 12 14 17 9 6 6 1 2 6 7 3 3 7 10 10 9 9 8 7 7 8 7 7 7 6 4 5 6 7 6 5
18 19 19 21 23 23 25 26 25 23 20 18 17 16 16 16 18 19 19 20 19 17 16 16 15 14 13 12 13 13 12 13 13 12 12 11 10 9 9 9 9 8 8 8 8 8 8 9 11 13 13 13 15 16 14 17 17 10 9 8 5 4 12 10 4 3 4 6 10 12 11 8 8 10 11 10 9 8 7 7 7 7 7 6 5
17 19 20 21 22 23 26 26 23 20 17 16 16 15 15 16 18 19 20 21 20 17 16 15 14 14 14 14 15 14 13 13 13 12 11 11 10 9 9 9 10 9 8 9 9 8 8 8 9 11 11 12 13 15 16 18 17 11 8 8 6 8 13 9 9 10 5 2 6 9 11 12 12 11 11 10 9 8 8 8 7 7 7 7 7
17 19 20 21 22 23 24 23 18 15 15 16 16 15 15 17 18 19 20 20 18 16 15 15 14 14 15 15 14 14 14 14 13 12 11 10 10 9 10 10 10 10 10 10 9 7 7 7 7 9 10 11 11 13 15 17 16 11 8 10 11 13 11 9 13 15 9 4 4 4 8 14 14 13 11 9 9 9 8 8 8 8 9 11 12
17 19 21 21 23 22 21 21 20 17 16 17 17 16 18 18 19 19 21 20 18 16 15 14 13 14 14 14 14 14 15 14 13 11 10 10 10 10 10 10 9 9 9 9 8 7 7 6 7 9 9 10 10 11 13 13 12 10 9 15 18 15 11 9 12 15 11 8 6 5 8 11 11 11 10 9 10 9 8 9 9 11 12 14 16
18 19 21 22 24 23 20 22 24 24 22 21 19 19 19 19 20 21 21 21 19 17 16 14 14 15 15 16 16 16 15 14 12 11 9 10 11 11 9 8 8 8 8 9 8 8 8 9 9 9 9 9 10 10 10 10 10 9 10 16 19 17 11 10 13 15 13 11 8 6 9 12 11 10 9 8 10 10 10 11 11 13 14 16 16
Wind_Direction
155 155 158 158 152 149 149 147 144 141 139 136 134 131 130 126 124 123 124 126 126 128 130 132 133 133 133 131 131 131 132 129 128 127 127 126 123 120 118 117 116 115 113 111 110 109 108 107 107 107 106 106 107 105 105 105 102 98 94 89 86 85 85 84 83 83 83 82 83 90 94 97 98 92 84 79 76 78 80 81 84 85 83 80 81
154 155 159 159 155 152 150 148 145 142 140 137 135 133 131 128 126 126 127 129 129 128 128 131 132 133 132 130 127 127 129 127 126 126 125 123 120 119 119 117 114 113 111 109 109 108 108 108 108 108 108 107 107 106 105 105 102 98 93 89 86 84 83 82 85 87 86 86 87 91 94 96 96 88 84 79 77 78 79 81 82 83 82 80 79
150 155 159 158 157 153 151 149 146 143 141 139 137 136 133 130 128 128 130 132 131 127 126 127 127 129 128 126 124 124 125 124 123 123 121 119 118 119 118 117 112 109 110 111 110 109 109 109 109 110 109 108 106 104 105 106 103 98 94 90 88 87 84 79 80 90 93 95 96 99 100 95 93 88 85 82 79 78 79 79 80 81 82 82 78
150 154 157 157 158 152 152 150 147 144 142 141 140 138 134 132 129 129 132 133 133 128 125 125 126 127 125 124 123 123 123 123 121 119 117 116 118 119 117 114 113 112 112 113 113 112 111 110 111 111 109 107 106 106 106 105 103 102 99 94 91 88 82 74 74 88 97 101 103 105 105 99 96 87 80 81 81 78 78 79 80 80 80 80 78
150 154 156 158 158 152 152 151 149 146 144 143 142 140 136 133 130 129 130 131 130 128 127 126 126 126 125 124 124 124 124 124 121 118 117 118 119 119 116 112 114 116 114 114 113 113 113 113 113 111 109 109 109 108 108 106 105 106 108 104 98 92 79 72 73 86 97 102 103 104 104 104 101 87 78 81 80 77 77 79 79 78 78 78 77
151 153 156 159 158 153 153 152 150 147 147 146 144 142 138 134 130 129 128 129 127 127 128 127 126 126 125 125 126 127 127 126 123 122 120 119 119 119 118 115 116 117 115 114 114 116 115 116 115 113 112 112 112 110 110 108 107 107 111 112 110 107 84 76 76 82 96 104 106 105 104 105 103 97 91 82 74 79 80 78 79 78 78 78 77
151 152 157 159 155 153 154 153 151 149 149 148 146 143 140 135 130 128 129 129 128 129 129 128 127 126 126 127 128 129 129 128 126 124 120 120 121 121 121 120 120 119 119 119 121 122 120 119 118 116 117 117 117 115 113 109 107 105 104 107 107 109 96 89 85 84 95 104 108 107 106 104 103 102 98 90 78 83 86 81 79 78 77 77 75
150 153 157 157 152 153 154 153 152 150 151 150 147 144 142 136 131 130 130 130 131 132 132 132 130 128 128 130 131 131 132 129 127 124 124 126 124 124 124 124 124 123 122 122 123 125 124 124 122 120 122 121 120 120 119 113 108 104 99 97 100 111 123 121 111 100 99 104 110 111 112 111 110 104 99 98 89 85 90 90 84 79 76 75 73
150 154 156 153 150 152 154 155 153 151 152 151 148 145 143 138 134 131 131 131 132 134 135 137 135 132 132 133 132 133 135 132 130 129 130 129 127 128 131 131 127 125 124 122 119 123 127 127 126 125 124 123 124 125 123 118 110 104 94 92 103 113 128 136 132 118 107 107 112 116 121 121 114 105 100 97 89 84 90 98 90 77 74 74 73
150 153 154 150 149 153 155 156 154 152 153 151 148 146 144 140 137 133 132 132 133 135 135 138 138 134 134 136 135 136 139 138 137 136 137 134 134 136 138 137 128 125 123 120 118 120 126 129 131 130 129 129 129 128 124 117 108 98 88 90 105 104 115 133 134 122 112 112 116 117 119 119 111 105 102 96 93 90 87 92 90 79 77 79 78
151 153 152 149 148 154 156 157 155 152 152 151 149 147 147 144 140 135 132 133 134 136 136 139 138 135 136 139 140 141 143 144 143 142 140 139 141 142 143 140 130 127 125 123 122 120 123 133 139 138 136 133 130 127 122 113 104 93 86 96 106 106 113 121 122 117 115 116 119 116 113 112 108 106 104 99 98 95 88 88 91 89 84 81 81
150 153 151 148 150 155 157 157 154 151 152 152 151 150 151 147 142 137 134 135 137 138 139 141 140 137 138 140 143 145 147 148 146 144 141 141 144 145 144 138 131 129 130 130 128 123 122 134 143 143 139 134 130 126 119 111 103 91 86 99 113 118 116 113 112 114 115 114 117 117 115 112 108 106 104 102 101 97 92 92 94 92 85 80 82
149 151 150 149 152 156 157 156 154 152 153 153 153 153 154 148 142 140 137 139 142 142 143 145 143 142 142 142 146 149 150 150 149 146 142 144 145 145 140 134 133 132 133 134 132 127 123 133 144 144 141 137 132 125 118 110 102 91 88 102 123 129 121 112 108 109 109 108 114 117 116 114 111 110 108 105 102 98 94 94 96 92 83 79 81
148 151 150 151 152 154 156 157 155 153 152 154 156 156 155 149 144 144 142 146 146 146 149 150 149 148 147 145 149 150 150 152 150 146 145 149 148 145 142 137 136 136 137 135 132 129 124 133 144 146 144 141 135 128 118 109 101 89 90 108 129 136 128 117 109 106 104 103 112 119 121 118 113 110 108 107 104 102 99 96 96 92 85 82 81
146 150 150 150 150 153 155 155 155 153 153 156 159 159 157 151 148 148 146 150 150 150 154 154 151 149 149 146 149 150 148 150 149 148 148 151 146 142 143 140 137 137 139 137 133 134 131 135 146 148 146 145 138 130 119 108 101 90 91 110 133 143 134 122 114 107 102 102 111 118 121 118 116 114 111 110 108 106 104 101 99 95 90 86 82
145 149 149 148 150 151 151 152 154 154 156 159 161 161 158 155 154 152 150 154 154 154 155 153 149 146 146 144 148 151 149 150 151 150 150 150 143 139 140 136 135 135 136 135 133 138 137 138 148 150 148 148 142 133 122 110 101 94 94 105 132 147 141 128 117 109 103 103 109 113 115 116 122 122 116 112 109 108 106 106 103 98 92 89 86
144 147 145 146 150 149 149 152 154 155 157 161 165 164 161 160 159 157 155 159 158 155 153 149 144 142 143 144 147 150 150 152 153 152 151 150 143 139 139 136 136 136 137 138 136 137 138 138 145 150 149 149 146 136 122 110 99 97 99 102 128 147 146 136 121 112 106 105 110 117 122 127 129 120 115 112 108 108 106 105 103 100 100 97 93
142 143 144 147 149 148 151 152 155 157 158 163 167 165 164 166 164 162 160 161 160 158 153 147 142 142 143 142 141 143 145 146 150 153 152 149 143 141 142 139 135 134 140 145 145 141 137 134 139 147 149 150 148 138 121 108 97 98 104 105 128 150 152 145 128 118 111 110 113 121 127 134 132 116 111 111 109 110 107 104 102 103 103 99 96
140 142 143 147 148 150 153 153 158 158 160 165 166 166 168 169 165 164 163 161 160 158 153 149 146 144 142 137 136 138 137 137 142 145 143 141 140 144 145 139 133 136 146 146 147 147 140 135 135 143 148 149 146 137 122 108 98 101 107 106 126 153 158 152 135 124 118 114 116 123 120 119 121 114 113 113 109 108 106 104 103 104 102 99 96
139 142 144 147 149 151 154 156 160 162 164 167 168 168 169 169 165 164 164 162 160 157 153 152 152 148 142 137 136 137 135 134 136 136 135 137 139 143 144 138 137 141 147 143 141 144 142 135 130 138 146 147 141 134 121 108 101 104 106 103 123 150 158 155 143 131 124 118 119 121 118 116 116 121 124 118 111 108 107 104 101 102 103 101 99
139 143 144 147 149 152 156 158 163 167 169 168 169 170 169 168 165 164 164 163 161 158 156 156 158 152 144 142 140 139 137 134 133 132 132 133 136 143 143 138 135 134 134 129 125 125 127 128 128 139 143 141 133 127 120 108 104 108 107 101 119 145 155 156 149 138 131 125 123 124 124 121 115 121 125 119 115 112 109 105 105 106 106 105 106
142 144 145 148 150 154 158 161 165 171 174 171 169 170 169 167 165 166 166 167 166 164 163 161 162 155 147 146 144 141 138 135 132 129 125 124 135 139 136 130 124 120 118 115 115 118 121 123 130 137 136 134 130 129 126 115 114 118 114 107 118 140 152 157 154 145 138 131 128 130 133 126 115 120 126 126 120 110 108 110 114 113 111 111 108
144 145 144 147 151 156 161 164 168 174 176 173 171 172 169 167 169 172 172 173 173 171 170 167 166 160 153 150 146 142 137 135 130 125 122 128 133 127 122 120 116 113 115 116 118 122 120 117 119 125 129 128 126 134 135 127 130 129 121 117 121 137 152 159 158 151 142 137 135 138 139 133 125 125 129 130 115 106 117 127 131 123 120 118 110
146 146 144 147 152 158 164 168 172 177 177 174 174 175 171 173 177 177 177 180 182 179 176 173 169 162 157 154 147 139 133 131 126 124 127 132 131 123 120 119 115 113 115 117 114 110 106 105 108 114 119 111 107 124 137 138 139 136 128 126 129 139 154 162 163 157 148 143 141 146 147 137 132 130 132 131 118 116 128 140 141 130 127 127 120
143 144 144 148 155 161 168 172 175 178 177 177 178 178 177 181 182 179 179 184 190 185 178 175 170 163 159 153 144 136 133 133 132 132 130 129 128 124 125 121 117 116 115 109 102 100 99 100 102 108 110 95 86 95 119 135 137 138 134 132 139 149 158 165 167 164 155 149 148 154 152 136 136 138 139 141 134 127 133 141 138 133 131 127 124
139 143 148 154 160 167 174 177 179 179 180 182 181 182 184 185 183 181 182 188 194 186 176 173 168 163 160 154 146 142 142 141 138 137 133 130 127 127 127 122 121 119 115 107 97 93 92 93 96 103 104 89 80 81 96 117 128 139 141 138 144 154 162 169 172 170 160 153 153 158 154 140 144 146 143 148 145 132 135 141 137 136 137 132 133
143 148 154 158 165 172 179 181 180 181 183 187 186 188 189 186 184 183 187 193 193 186 178 171 166 164 161 157 153 153 157 152 143 137 138 136 131 132 130 126 129 121 112 105 94 87 82 87 93 99 103 90 81 80 87 98 111 132 142 144 147 153 163 172 174 171 161 155 156 161 156 147 154 153 143 147 149 142 135 139 138 135 136 138 141
148 152 157 162 171 177 182 183 182 183 184 189 193 194 191 186 186 187 191 196 191 186 178 170 167 165 160 160 161 163 166 159 147 143 147 144 137 137 134 135 133 117 107 98 90 76 63 91 101 93 106 101 89 86 89 93 94 112 133 144 148 153 164 172 175 170 161 158 159 164 158 153 163 161 151 155 157 157 144 135 130 122 125 135 139
154 156 164 171 178 181 183 186 185 184 185 192 197 196 191 186 189 190 192 193 189 185 178 171 168 164 161 164 168 172 170 161 155 154 155 149 146 147 144 143 128 113 103 92 84 59 44 98 129 121 116 116 106 97 103 111 103 108 128 142 148 156 166 172 174 169 163 162 163 166 162 159 165 170 167 166 164 161 153 136 119 108 109 121 130
166 162 170 176 179 182 185 187 186 184 186 192 196 195 190 189 193 193 193 192 188 185 180 174 170 165 165 168 174 178 171 165 165 164 160 156 158 164 160 152 134 120 104 82 67 38 71 104 128 134 127 128 121 108 112 125 124 118 129 145 152 162 170 173 174 171 167 166 167 169 167 162 165 180 185 171 166 161 160 156 128 111 109 113 118
176 168 173 176 179 183 185 186 186 186 187 192 194 193 190 192 196 194 194 193 187 186 182 177 172 168 168 171 176 180 173 172 174 169 165 165 165 171 175 165 143 127 120 166 248 193 140 120 128 131 128 133 126 117 119 126 133 131 135 146 157 169 175 177 177 175 172 171 171 169 169 166 169 186 191 175 169 157 162 172 148 125 116 111 106
184 177 177 178 180 183 184 185 188 189 191 194 194 193 193 196 199 196 195 194 188 187 184 179 173 169 171 175 180 183 180 180 180 175 173 174 172 181 189 178 168 175 201 217 216 195 159 137 137 131 125 130 129 125 126 128 133 137 143 148 156 166 174 181 183 181 179 176 175 173 170 169 172 183 189 186 183 151 158 174 157 138 119 111 105
188 183 180 179 180 181 183 185 189 194 196 197 195 195 197 199 203 202 199 196 191 190 186 180 175 172 175 181 187 188 187 187 183 182 185 185 186 191 192 185 187 205 218 211 200 196 180 154 143 134 127 132 134 132 132 132 132 138 150 154 158 165 172 183 187 185 183 181 179 177 171 170 174 180 188 196 201 152 150 164 153 139 132 127 114
190 185 181 178 178 178 181 185 190 196 196 197 197 197 200 204 210 208 201 198 193 189 185 180 178 179 182 188 194 193 192 193 190 190 190 191 195 197 199 194 192 207 217 204 194 194 183 163 149 137 132 138 141 139 140 136 133 141 152 156 162 168 175 184 188 187 186 184 183 181 174 171 175 181 189 198 205 165 148 152 147 150 155 132 106
189 183 179 176 177 177 180 185 189 194 195 197 199 199 204 209 214 208 198 197 192 185 182 182 183 185 188 192 199 201 199 200 201 202 198 196 200 200 200 196 195 204 203 188 183 184 177 164 152 142 136 144 149 147 146 140 140 147 150 156 165 171 179 185 190 191 190 187 183 183 182 177 176 184 189 190 193 175 158 143 135 153 143 101 104
188 183 178 176 177 178 182 186 189 192 194 197 199 201 207 210 210 204 198 195 188 184 184 186 187 188 191 193 198 204 205 205 206 206 204 204 203 198 194 192 190 185 178 169 166 172 172 159 145 145 146 148 153 153 149 147 147 147 146 153 161 171 182 187 193 195 191 188 184 185 189 183 177 186 191 186 185 177 175 143 121 133 122 108 132
190 185 179 175 175 178 184 188 189 192 193 196 198 201 205 205 204 201 196 191 186 186 187 190 192 192 193 191 194 201 208 212 209 205 208 209 204 196 190 184 175 169 166 160 154 156 162 154 141 143 153 154 158 156 150 148 144 139 139 144 148 157 172 181 193 197 191 188 185 186 189 183 180 192 196 189 184 173 171 160 139 143 151 151 167
190 185 178 176 175 178 185 189 190 192 193 194 196 198 200 199 196 191 184 181 186 191 192 194 197 196 195 193 198 205 210 212 206 205 206 204 199 194 187 177 166 160 159 153 143 141 147 152 145 138 142 158 161 155 149 143 133 126 125 126 133 145 154 164 178 187 188 186 183 185 185 181 185 194 198 195 189 181 176 172 167 167 173 177 174
185 180 176 176 176 178 183 188 191 193 193 193 193 193 193 190 185 179 176 179 187 192 194 198 199 199 200 200 205 205 205 204 200 200 193 187 190 187 178 172 166 157 156 151 140 138 142 152 151 139 134 151 160 155 149 141 127 119 113 107 110 122 132 145 160 171 178 180 178 183 187 189 193 190 192 200 198 194 189 185 183 185 189 192 182
179 176 175 177 177 178 181 185 193 196 193 190 187 186 184 181 177 173 175 180 185 189 194 199 199 201 201 199 199 194 195 196 193 187 178 177 183 180 175 172 168 163 160 156 148 143 146 153 154 145 142 149 155 154 152 144 127 110 103 99 95 95 101 118 144 162 172 178 178 182 191 197 196 190 192 200 202 202 200 193 188 193 201 203 202
175 175 175 177 178 177 178 182 191 196 194 188 183 181 179 174 171 170 174 178 182 188 194 197 199 200 195 191 189 184 186 188 181 176 172 176 180 178 178 174 170 167 160 153 152 152 153 157 155 147 147 151 152 155 156 147 128 107 97 91 84 82 81 88 108 133 161 177 181 184 197 206 200 193 193 195 198 206 213 202 190 199 208 202 206
172 175 177 177 177 177 178 181 188 194 194 190 184 182 181 178 173 172 176 178 183 191 194 194 196 193 187 182 179 174 175 177 174 175 176 179 177 176 177 173 168 165 160 157 159 164 165 167 162 151 151 156 156 159 158 148 135 129 120 100 81 78 78 80 85 87 113 156 170 180 201 214 214 201 193 192 193 199 210 199 190 209 216 202 201
173 176 177 175 174 176 178 180 186 192 192 190 186 183 184 184 180 176 176 178 186 194 192 185 181 178 175 173 170 166 166 169 170 173 177 177 172 170 168 164 162 163 168 172 171 173 174 179 174 157 155 161 162 162 160 159 153 144 129 113 94 79 72 69 71 69 79 111 135 154 185 207 209 208 191 194 187 189 202 194 186 203 214 210 204
175 175 172 170 171 174 178 181 186 191 190 187 183 180 177 175 176 175 175 179 184 186 181 172 167 166 166 165 164 161 159 159 160 164 168 164 157 155 154 154 160 169 179 180 178 180 180 185 183 168 163 164 168 170 174 185 165 149 126 105 101 91 85 72 67 60 67 88 99 115 129 155 168 161 143 143 152 172 211 200 188 202 215 221 218
179 177 169 168 170 173 178 182 186 189 188 183 179 175 170 165 168 171 172 173 171 173 173 168 167 167 165 163 161 158 153 148 146 149 150 147 144 143 147 150 158 168 178 182 182 183 183 186 185 180 177 174 176 181 187 187 172 160 150 137 96 68 148 137 96 61 63 77 82 99 119 138 152 146 124 109 98 83 94 141 130 109 103 103 113
183 179 171 168 170 172 178 183 184 185 182 179 178 175 172 170 170 168 166 162 160 167 172 170 169 168 162 159 155 151 146 140 137 139 142 144 144 144 148 152 156 162 170 179 184 184 183 188 188 188 188 187 185 183 183 183 182 187 188 164 121 234 166 143 125 67 77 81 81 97 110 113 113 108 100 92 94 95 93 93 90 91 93 93 94
185 178 170 167 169 170 177 184 184 181 177 175 177 176 172 172 170 168 165 163 161 166 171 168 166 163 158 152 148 147 146 145 143 144 147 150 151 150 153 157 159 160 166 174 178 180 179 183 189 193 195 196 192 187 183 183 187 201 207 209 271 221 165 150 148 145 109 80 77 88 98 99 96 97 98 100 103 100 96 99 99 98 98 98 93
181 174 169 167 168 168 174 183 183 179 175 174 180 179 173 171 169 166 163 161 159 162 166 164 160 158 156 153 151 152 153 153 151 152 156 160 162 159 160 165 164 164 168 172 174 180 182 184 187 191 195 197 200 196 190 189 192 192 191 206 224 183 163 157 152 138 120 96 84 81 92 97 94 93 96 99 100 94 94 99 101 102 104 105 102
175 172 170 167 168 166 168 176 180 179 174 178 185 182 178 177 174 168 161 159 159 161 163 160 158 159 159 159 158 155 155 155 154 155 158 165 167 162 162 166 166 167 168 170 175 181 184 186 182 181 185 190 201 206 198 196 200 194 169 157 157 157 150 140 138 128 110 111 112 81 92 95 87 84 91 98 96 95 97 96 97 102 103 104 105
171 171 169 167 166 162 162 171 180 184 180 184 188 183 182 183 182 176 165 162 164 164 164 163 166 170 169 166 161 157 156 155 156 157 159 167 170 167 167 169 168 169 167 167 171 173 171 169 165 164 168 174 182 194 198 198 201 201 178 157 151 149 140 130 132 127 110 96 100 103 101 99 90 81 83 88 90 92 98 102 105 107 107 107 107
170 171 168 165 162 162 168 173 181 187 187 189 188 184 186 187 186 182 172 167 167 165 164 165 171 173 170 164 160 158 156 154 158 161 162 170 173 172 173 173 172 171 165 163 163 160 155 151 148 148 153 161 164 172 185 191 191 194 182 168 162 157 154 154 148 140 130 115 110 108 102 100 95 86 84 84 87 91 96 103 109 109 110 109 107
Height
760 763 764 766 768 769 770 770 771 772 773 774 775 776 777 778 778 779 780 781 782 783 783 785 786 787 789 790 791 792 793 794 795 796 797 798 799 800 801 802 803 804 805 806 807 808 809 809 810 811 811 812 813 813 813 813 814 814 815 815 815 815 816 816 816 816 816 816 816 816 816 816 816 815 815 815 814 814 814 813 813 813 814 815 815
759 762 764 766 768 769 770 770 772 773 774 775 776 777 778 779 780 781 781 782 783 784 785 786 787 788 790 791 792 793 795 795 796 797 798 799 800 802 802 803 804 805 806 807 808 809 810 810 811 812 813 814 814 815 815 815 815 816 817 816 817 817 817 817 817 817 817 817 817 818 818 818 817 817 817 816 816 816 815 815 815 815 815 816 816
758 762 764 766 768 769 770 771 773 774 775 776 777 778 779 780 781 782 782 783 783 785 786 787 788 790 791 792 793 795 796 797 797 798 799 800 802 803 804 804 805 806 807 808 809 810 811 812 813 813 815 815 816 816 817 817 817 818 818 818 818 818 818 819 818 818 818 818 818 819 819 819 819 818 818 818 818 817 817 817 817 817 817 817 817
758 762 764 767 768 769 770 772 773 775 776 777 778 779 781 782 783 783 783 784 784 786 787 788 790 791 792 793 795 796 797 798 799 799 801 802 803 804 805 806 807 808 808 809 810 811 812 813 814 815 816 817 817 817 818 819 819 819 819 819 819 819 820 820 820 819 819 819 819 819 819 819 820 820 819 819 819 819 819 818 819 819 819 818 819
758 761 765 767 768 769 770 772 774 775 776 777 779 780 782 783 784 784 785 785 786 787 788 790 791 792 794 795 796 797 798 799 800 801 802 803 804 805 806 807 808 808 809 810 810 811 813 814 815 816 817 818 818 819 820 820 820 820 820 820 820 820 821 821 821 821 820 821 821 821 820 820 821 821 821 821 820 821 820 820 820 820 820 820 820
758 762 764 766 768 769 771 773 774 776 777 778 780 781 782 784 785 785 786 786 787 788 789 791 792 794 795 796 797 798 799 800 801 802 803 804 805 806 807 808 809 809 810 810 811 812 813 814 815 816 817 818 819 820 820 821 821 821 821 821 821 821 821 822 822 822 822 822 822 822 822 822 822 822 823 822 822 822 822 821 821 821 821 821 821
758 762 764 766 767 769 771 773 775 777 778 779 781 782 783 784 785 786 787 787 788 789 791 792 793 795 796 797 798 799 800 801 802 802 804 805 806 807 808 809 809 810 811 811 811 812 813 815 816 817 818 819 819 820 821 821 822 822 822 821 822 822 822 823 823 823 823 823 823 823 823 823 823 823 824 824 823 823 823 823 823 823 823 822 822
759 762 764 766 767 769 772 774 776 777 778 780 781 783 784 785 786 787 788 789 790 791 792 793 794 796 797 798 799 800 801 802 803 804 805 806 807 808 809 810 810 811 811 812 812 813 814 815 816 817 818 819 820 820 821 822 822 822 822 822 822 822 823 823 823 824 824 824 824 824 824 824 823 823 824 824 824 823 823 824 824 824 824 824 824
761 763 764 766 768 770 772 774 776 778 779 781 782 784 785 786 787 788 789 790 791 792 793 794 795 797 798 799 800 801 802 803 804 805 806 807 808 809 810 810 811 811 812 812 813 814 815 816 817 818 819 819 820 820 821 822 822 822 823 822 822 822 823 823 824 824 825 825 825 825 825 824 824 824 825 825 825 824 824 824 825 825 825 825 825
762 764 765 766 768 771 773 775 777 779 780 782 784 785 787 788 788 789 790 791 792 793 794 795 796 797 799 800 801 802 803 804 805 806 807 808 809 809 810 811 811 812 813 813 814 815 816 817 818 818 819 819 820 821 822 822 823 823 823 822 822 822 823 824 824 825 825 826 827 827 826 826 825 825 826 826 826 825 825 825 826 826 826 826 826
763 765 766 767 770 772 774 776 778 780 781 783 785 786 788 788 789 790 791 793 793 794 795 796 797 798 799 800 801 803 804 805 806 807 808 809 810 810 811 812 812 813 813 814 815 816 816 817 818 819 819 820 821 822 823 823 823 823 823 823 823 823 824 824 825 826 826 827 828 828 828 827 826 826 826 827 827 826 826 826 827 827 827 827 827
764 766 767 769 771 773 775 777 779 781 783 785 786 787 788 789 790 791 793 794 794 795 795 796 797 799 800 801 802 803 804 805 806 807 808 809 810 811 812 813 813 813 814 815 815 816 817 818 819 819 820 821 822 823 824 823 823 823 823 823 824 824 824 825 826 826 827 828 829 829 829 828 827 827 827 827 827 827 827 827 828 828 828 828 829
765 767 768 770 772 774 776 778 780 782 784 786 787 788 789 790 792 793 794 794 795 795 796 797 798 799 800 801 802 804 805 806 807 808 809 810 811 812 813 814 814 814 815 816 816 817 818 819 820 820 821 822 823 824 824 824 824 824 824 824 824 825 825 826 826 827 828 828 829 830 830 830 829 829 828 828 828 828 828 828 829 829 829 830 830
765 768 769 771 773 776 777 780 781 784 785 787 788 789 790 791 792 793 794 794 795 796 797 798 798 800 801 802 803 804 805 806 808 809 810 811 811 812 813 814 815 815 816 817 817 818 819 819 820 821 821 822 824 825 825 825 824 825 825 825 825 826 826 826 827 827 828 829 830 831 831 830 830 830 830 829 828 828 828 829 829 830 831 831 831
765 768 770 772 774 777 779 781 783 785 786 787 788 789 790 791 792 793 794 795 795 796 797 798 799 800 801 803 804 805 806 807 809 810 811 811 812 813 813 814 815 816 817 817 818 819 819 819 820 821 822 823 824 825 825 825 825 826 826 826 826 827 827 827 827 828 829 830 830 831 832 831 831 831 831 830 830 829 829 829 830 831 832 832 832
766 769 771 773 775 778 780 782 784 785 786 787 788 789 790 791 793 793 794 795 795 796 797 798 799 801 802 803 805 806 807 808 809 810 811 812 813 813 814 815 815 816 817 818 819 819 819 820 820 821 822 824 825 826 826 826 826 827 827 827 828 828 828 828 828 828 829 830 831 832 833 832 832 832 832 832 831 830 830 830 831 832 833 833 834
767 770 772 774 776 779 781 783 784 786 787 787 788 789 790 791 792 793 794 795 795 796 797 799 800 802 803 804 805 807 808 809 810 811 812 813 813 814 814 815 816 817 818 819 819 820 820 820 821 822 823 824 826 827 827 827 827 828 828 828 829 829 829 829 829 829 830 831 832 833 833 834 833 833 834 833 832 832 832 832 832 833 833 834 835
768 771 773 775 777 780 781 783 785 786 787 787 788 789 790 791 793 794 794 795 796 797 798 800 801 803 804 805 806 807 808 809 810 811 812 813 814 815 815 816 816 818 818 819 820 820 821 821 822 822 823 825 826 827 827 828 828 828 829 829 830 830 830 830 830 830 830 831 832 834 834 834 834 834 835 835 834 833 833 834 834 834 835 835 836
770 772 773 776 778 780 782 783 785 785 786 787 788 790 791 792 793 795 795 796 797 798 799 801 802 803 805 806 807 807 808 809 810 811 812 814 815 816 817 817 817 818 819 820 820 821 822 822 822 823 824 825 826 827 827 828 828 829 830 830 830 831 831 831 831 831 831 831 833 834 835 835 834 835 836 836 836 835 835 836 836 836 836 836 837
770 772 774 777 778 780 781 783 784 785 786 786 788 789 791 793 794 796 796 797 798 799 801 802 803 804 805 806 807 808 809 809 811 812 813 814 815 816 817 818 817 817 819 820 821 822 823 823 823 824 824 825 826 827 827 828 829 829 830 830 830 831 831 832 832 832 831 832 833 835 835 835 835 835 836 837 837 837 837 837 837 838 838 838 838
771 773 775 777 778 780 781 782 783 784 785 786 788 789 791 793 795 796 797 798 799 801 801 802 803 805 806 807 808 809 810 810 811 813 814 815 816 817 818 818 818 818 820 821 822 823 824 824 824 824 824 825 826 827 827 828 829 829 830 830 830 831 832 832 832 832 832 832 833 834 836 836 835 835 836 837 838 837 838 838 839 839 839 839 839
771 774 776 777 778 780 781 782 783 784 784 786 787 789 791 793 795 796 797 799 800 801 802 803 804 805 807 808 809 810 811 811 812 813 814 815 816 818 818 819 818 819 820 821 822 823 824 824 824 825 825 826 826 827 827 828 829 829 830 830 831 831 832 832 833 833 833 833 833 834 835 836 836 836 836 837 837 837 838 839 839 840 840 840 840
771 774 776 778 779 780 781 782 782 783 784 786 788 789 791 793 795 796 797 798 799 800 801 803 804 806 807 809 810 811 812 813 813 814 815 816 817 818 818 819 819 820 821 822 822 823 824 824 825 826 826 826 826 826 827 828 828 829 830 830 830 831 832 832 833 833 833 833 834 834 835 836 836 836 836 836 837 837 838 839 839 840 840 841 840
771 774 776 778 779 780 781 783 783 784 786 787 789 790 792 793 794 795 796 797 798 800 802 803 805 806 808 809 810 811 813 813 814 815 816 817 817 818 819 820 820 820 822 822 823 824 824 825 825 826 827 827 827 826 827 828 828 829 830 830 830 831 832 833 833 833 834 834 834 835 836 836 836 837 837 836 836 836 837 838 839 840 841 841 841
770 774 776 777 779 780 781 783 784 785 787 788 789 791 792 792 793 794 796 797 799 800 802 803 805 807 808 810 811 812 813 814 815 816 817 818 818 818 819 820 820 821 823 823 824 824 825 825 826 827 827 827 827 827 827 828 829 829 830 830 830 831 832 833 833 834 834 834 835 836 837 837 837 838 838 837 836 836 837 837 838 840 841 842 842
770 773 774 776 778 780 781 783 784 786 787 788 789 791 791 792 793 795 796 798 799 800 802 803 805 807 808 810 811 812 813 814 815 816 818 818 818 819 820 820 820 822 823 824 824 825 826 826 827 828 828 828 827 827 827 828 829 829 830 830 830 831 832 832 833 833 834 835 836 837 838 838 838 839 839 839 838 837 837 837 838 839 840 842 843
769 770 772 775 777 779 781 781 783 785 787 788 789 790 791 793 794 796 797 798 799 801 802 803 805 807 808 810 811 812 813 815 815 816 818 819 819 819 820 820 822 823 823 823 824 825 827 827 828 828 828 828 828 828 828 828 829 829 830 830 830 831 832 832 833 834 834 835 837 838 838 839 839 840 840 840 840 839 838 838 838 839 841 842 843
768 770 772 773 775 776 778 780 781 782 784 786 788 789 791 793 795 797 798 799 800 801 802 804 805 807 808 810 811 812 814 815 816 817 818 819 819 820 820 821 822 823 823 824 825 827 828 828 828 828 828 829 828 829 829 829 829 830 830 830 831 831 832 833 834 835 836 836 837 838 838 839 840 840 840 840 840 840 840 840 840 840 841 842 843
769 770 771 771 772 773 775 777 778 779 781 784 786 789 791 793 795 797 798 799 800 801 802 804 805 807 809 810 811 812 814 815 816 817 818 819 820 821 821 822 823 823 823 825 826 828 829 828 828 828 828 829 829 829 830 830 830 830 830 831 831 832 833 834 835 836 836 837 837 838 839 840 840 840 840 840 841 841 841 842 842 842 843 844 844
771 770 770 771 772 773 774 775 776 777 779 782 785 788 791 793 794 796 798 799 800 801 803 804 806 807 809 810 812 813 814 816 817 818 819 819 820 821 822 823 823 823 824 825 827 828 829 828 828 828 829 829 830 830 830 830 830 831 831 831 832 832 833 834 835 836 836 837 838 839 839 840 841 841 841 841 842 842 843 843 843 844 844 845 846
772 770 770 770 772 773 774 776 777 777 779 781 784 787 790 792 794 796 797 798 800 801 803 804 806 807 809 811 812 813 815 816 817 818 819 819 820 821 822 823 823 823 824 826 827 828 828 828 828 829 829 829 830 830 830 831 831 831 832 832 832 833 834 835 835 836 837 837 838 839 840 841 841 842 842 843 843 844 844 844 844 845 845 846 847
766 764 765 766 767 770 773 775 777 778 779 781 783 787 790 792 793 795 797 798 800 802 803 805 806 808 810 811 813 814 815 816 817 818 819 819 820 821 822 823 823 824 825 826 827 828 828 828 829 829 830 830 830 830 831 831 831 832 832 832 833 833 834 835 835 836 837 837 838 839 840 841 842 843 843 844 845 845 845 846 846 846 846 847 848
759 759 759 760 763 766 769 773 776 778 779 781 784 788 790 792 794 795 797 799 800 802 804 805 807 809 810 812 813 814 816 817 817 818 819 820 821 822 822 823 824 825 825 826 827 828 828 828 829 829 830 830 830 830 831 831 831 832 832 832 832 833 834 834 835 836 836 837 838 839 840 841 842 843 844 845 846 847 847 847 847 847 848 848 849
757 758 759 760 762 763 766 770 774 777 779 782 785 788 791 792 794 795 797 799 800 802 804 806 808 810 811 812 814 815 816 817 818 819 819 820 821 822 823 823 824 825 825 826 827 827 828 828 829 829 830 831 831 831 831 831 831 832 832 832 832 833 834 834 835 836 836 837 838 839 840 841 842 844 845 846 847 848 849 849 848 848 848 849 850
757 759 761 763 764 765 767 769 773 776 779 782 785 788 791 792 794 795 797 799 801 803 805 807 809 810 812 813 814 816 817 818 818 819 819 820 821 822 823 823 824 825 825 826 826 827 828 829 829 830 830 831 831 831 831 832 832 832 832 832 833 833 834 834 835 835 836 836 838 839 840 842 843 844 845 846 848 849 850 850 849 849 849 850 851
758 760 762 764 766 768 770 771 773 775 778 781 784 788 790 792 794 795 798 800 802 804 806 808 809 810 812 814 815 816 817 818 818 819 820 821 821 822 823 823 824 825 825 825 826 827 828 829 829 830 830 831 831 831 832 832 832 832 833 833 833 834 834 834 835 835 835 836 838 839 840 842 844 845 846 847 848 849 850 850 850 850 850 851 852
758 759 761 764 767 769 771 772 773 775 778 781 784 787 790 792 794 796 798 801 803 805 807 808 810 811 812 814 815 816 817 818 819 820 820 821 822 822 823 823 824 824 825 826 827 827 828 829 829 830 830 830 831 832 832 833 833 833 833 834 834 835 835 835 835 835 836 836 838 840 841 842 844 847 848 848 849 849 850 850 850 851 851 851 852
759 760 761 764 766 769 772 773 774 776 778 781 784 787 790 792 794 796 798 801 804 805 807 809 810 812 813 815 816 817 818 818 819 820 821 821 822 823 823 824 824 825 825 826 827 827 828 829 829 830 831 831 831 832 832 833 833 834 834 834 835 835 835 835 836 836 837 838 839 841 842 843 844 847 848 848 849 849 850 850 851 851 851 852 853
762 763 765 766 767 770 772 774 775 777 779 782 784 787 790 793 795 797 799 801 804 806 808 809 811 812 814 815 816 817 818 818 819 820 821 821 822 822 823 823 824 825 826 826 827 828 829 830 830 830 831 831 832 832 833 833 834 835 835 835 836 836 836 836 837 837 838 839 841 842 843 843 844 846 847 848 849 849 850 851 851 852 852 853 853
763 765 767 768 769 770 772 774 775 777 780 783 786 788 790 793 795 797 799 801 803 806 808 810 812 813 814 816 816 817 818 818 819 820 820 821 821 822 823 823 824 825 826 826 827 828 829 830 830 831 831 831 832 833 833 834 834 835 836 837 837 837 837 837 837 838 839 840 842 843 843 843 844 845 846 847 849 849 850 851 851 852 853 853 854
764 765 767 769 769 770 772 774 775 777 781 784 787 789 791 793 795 797 799 802 804 806 808 810 812 813 815 816 816 817 817 817 818 819 820 821 821 822 822 823 824 825 826 827 828 829 830 831 831 831 831 831 832 833 834 834 834 836 837 838 838 838 838 839 839 839 840 841 842 843 843 843 844 845 846 847 849 849 850 851 852 852 853 854 855
763 765 766 768 770 771 773 774 776 778 781 785 788 790 792 793 795 798 800 803 805 807 809 811 812 814 815 815 816 816 817 817 818 819 820 821 821 822 822 823 824 825 826 827 828 829 830 831 831 831 832 832 832 834 835 835 835 836 837 838 839 840 840 840 840 841 842 843 843 843 843 844 844 845 846 847 848 850 851 852 853 853 854 855 855
763 765 766 768 770 771 773 775 777 779 782 786 789 791 793 795 796 799 801 804 806 808 810 811 812 814 815 816 816 817 817 817 818 819 820 821 821 822 822 823 824 825 826 828 828 829 830 831 831 831 831 832 833 834 835 835 835 836 837 838 840 841 841 842 842 842 843 843 844 844 844 844 845 846 847 847 848 850 851 852 853 854 854 855 855
764 765 766 768 769 771 774 776 778 780 783 787 789 792 794 796 798 800 802 804 806 809 810 812 813 814 815 816 816 817 817 818 818 819 820 821 821 822 823 823 824 825 827 828 828 829 830 830 831 832 832 832 833 834 835 835 835 835 836 838 840 842 843 843 843 844 844 844 845 845 845 846 847 847 848 848 849 851 852 852 853 853 854 854 855
764 765 766 768 769 772 774 776 778 781 784 787 790 792 794 797 799 801 803 805 807 809 811 812 813 814 815 815 816 817 818 818 818 819 820 821 822 822 823 824 825 826 827 828 828 829 830 830 831 832 832 832 832 833 834 835 835 835 835 836 838 841 843 843 843 845 845 845 846 847 847 848 848 848 849 850 851 851 852 853 852 853 854 855 855
765 766 767 768 770 772 774 776 779 782 785 788 790 792 795 797 799 801 803 805 807 809 811 812 813 814 815 815 816 817 818 818 819 820 821 821 822 823 824 825 826 826 827 828 828 829 829 830 831 832 833 833 832 832 833 834 835 835 835 834 835 837 839 841 843 846 846 847 847 848 849 849 849 850 850 851 852 852 853 853 853 853 854 855 855
765 767 768 769 771 773 775 777 780 783 786 789 791 793 796 798 799 801 803 804 806 809 811 812 813 814 815 816 817 818 819 819 820 821 821 822 822 823 824 825 826 826 827 828 828 829 829 830 831 832 833 833 833 832 832 832 833 835 835 835 834 834 835 837 840 843 846 848 849 849 850 850 850 851 851 852 853 853 854 854 854 854 855 856 856
766 767 768 770 772 774 777 780 783 786 788 790 792 794 796 798 800 802 804 805 807 809 811 812 813 814 815 817 817 818 819 820 821 821 822 823 823 824 824 825 826 826 827 828 828 829 829 830 830 831 832 833 833 832 831 831 832 834 835 835 835 834 835 836 837 839 843 848 850 850 850 851 851 852 853 854 854 854 855 855 855 855 856 856 857
766 767 769 770 773 776 779 783 786 788 790 791 793 795 796 798 801 803 804 805 808 809 811 812 813 815 816 817 818 818 819 820 821 822 823 823 824 824 825 825 826 826 827 828 828 828 829 829 830 831 831 832 832 832 832 831 832 833 834 834 835 835 836 837 838 838 841 845 849 851 851 852 853 854 855 855 856 856 856 856 856 857 857 858 858
766 768 769 771 774 777 780 783 785 788 790 792 793 794 796 798 801 803 804 805 807 809 811 812 813 815 816 817 818 819 820 820 821 822 823 823 824 825 825 826 826 827 827 828 828 829 829 829 830 830 831 831 832 832 832 832 832 833 833 834 834 835 836 838 839 839 840 844 848 851 852 853 854 856 857 857 857 857 857 858 858 858 859 859 860
766 768 769 771 775 778 780 781 782 785 788 790 792 794 796 799 801 803 804 805 807 809 810 812 813 815 816 818 819 820 820 821 822 822 823 823 824 825 825 826 827 827 828 828 828 829 829 830 830 830 831 831 831 832 832 832 832 833 833 834 834 834 835 837 838 839 840 843 847 851 853 854 855 857 858 859 859 859 859 860 860 860 860 861 861